JA6YCL-13 Weather Reports


time (UTC)temp
C
wind
direction
speed
KPH
gust
KPH
rain 1hr
cm
rain 24hr
cm
rain mn
cm
humidity
%
barometer
mb
20260507092653 22 171 1.6 6.4 0.00 0.00 0.00 73 1010.8
20260507091312 22 125 4.8 9.7 0.00 0.00 0.00 72 1010.9
20260507085846 22 164 1.6 4.8 0.00 0.00 0.00 71 1010.8
20260507084358 22 190 3.2 6.4 0.00 0.00 0.00 71 1011.0
20260507082917 22 122 4.8 9.7 0.00 0.00 0.00 73 1011.0
20260507081648 22 130 4.8 11.3 0.00 0.00 0.00 71 1010.9
20260507080433 22 117 3.2 4.8 0.00 0.00 0.00 71 1010.9
20260507075148 22 116 4.8 9.7 0.00 0.00 0.00 71 1010.9
20260507073943 23 191 3.2 11.3 0.00 0.00 0.00 66 1010.9
20260507072633 23 176 1.6 6.4 0.00 0.00 0.00 68 1010.8
20260507071313 22 119 6.4 12.9 0.00 0.00 0.00 68 1010.9
20260507065831 23 126 4.8 11.3 0.00 0.00 0.00 67 1011.0
20260507064333 23 122 6.4 14.5 0.00 0.00 0.00 67 1010.9
20260507063007 23 116 6.4 12.9 0.00 0.00 0.00 65 1011.0
20260507061743 23 101 8.0 14.5 0.00 0.00 0.00 65 1010.9
20260507060458 23 104 9.7 14.5 0.00 0.00 0.00 65 1011.0
20260507055008 23 81 4.8 12.9 0.00 0.00 0.00 64 1011.3
20260507053753 24 79 8.0 11.3 0.00 0.00 0.00 63 1011.3
20260507052538 24 107 11.3 16.1 0.00 0.00 0.00 62 1011.5
20260507051123 25 90 9.7 16.1 0.00 0.00 0.00 61 1011.5
20260507045803 25 99 9.7 14.5 0.00 0.00 0.00 61 1011.6
20260507044316 25 41 6.4 11.3 0.00 0.00 0.00 60 1011.4
20260507042842 25 12 6.4 12.9 0.00 0.00 0.00 60 1011.7
20260507041533 25 22 4.8 9.7 0.00 0.00 0.00 59 1011.6
20260507040333 26 346 8.0 16.1 0.00 0.00 0.00 56 1011.7
20260507035008 25 64 6.4 12.9 0.00 0.00 0.00 57 1012.0
20260507033648 25 76 6.4 14.5 0.00 0.00 0.00 57 1012.0
20260507032450 25 28 8.0 12.9 0.00 0.00 0.00 56 1012.0
20260507031213 26 106 8.0 20.9 0.00 0.00 0.00 53 1012.2
20260507025848 26 60 3.2 6.4 0.00 0.00 0.00 50 1012.4
20260507024423 26 166 4.8 12.9 0.00 0.00 0.00 51 1012.6
20260507022928 25 310 3.2 9.7 0.00 0.00 0.00 52 1012.9
20260507021435 24 301 3.2 6.4 0.00 0.00 0.00 54 1013.2
20260507020018 23 103 4.8 9.7 0.00 0.00 0.00 56 1013.5
20260507014753 23 32 4.8 6.4 0.00 0.00 0.00 56 1013.5
20260507013333 23 63 1.6 4.8 0.00 0.00 0.00 56 1013.8
20260507012018 23 35 3.2 6.4 0.00 0.00 0.00 59 1014.0
20260507010533 22 44 3.2 6.4 0.00 0.00 0.00 60 1014.1
20260507005242 22 195 1.6 6.4 0.00 0.00 0.00 61 1014.5
20260507003833 22 82 3.2 6.4 0.00 0.00 0.00 61 1014.5
20260507002618 21 357 1.6 4.8 0.00 0.00 0.00 63 1014.8
20260507001213 20 331 1.6 4.8 0.00 0.00 0.00 64 1015.1
20260506235833 21 97 3.2 9.7 0.00 0.00 0.00 63 1015.0
20260506234453 20 77 1.6 4.8 0.00 0.00 0.00 65 1015.2
20260506233017 18 286 0.0 1.6 0.00 0.00 0.00 68 1015.4
20260506231758 18 266 1.6 4.8 0.00 0.00 0.00 70 1015.7
20260506230343 18 299 1.6 3.2 0.00 0.00 0.00 70 1015.6
20260506225054 18 275 0.0 1.6 0.00 0.00 0.00 71 1015.6
20260506223813 18 57 1.6 3.2 0.00 0.00 0.00 71 1015.6
20260506222530 17 101 1.6 3.2 0.00 0.00 0.00 74 1015.7
20260506221141 16 106 1.6 4.8 0.00 0.00 0.00 77 1015.8
20260506215853 16 250 0.0 1.6 0.00 0.00 0.00 77 1015.9
20260506214549 15 246 0.0 3.2 0.00 0.00 0.00 82 1016.1
20260506213108 13 271 1.6 3.2 0.00 0.00 0.00 86 1016.0
20260506211853 13 47 1.6 3.2 0.00 0.00 0.00 88 1015.8
20260506210503 13 148 1.6 3.2 0.00 0.00 0.00 89 1015.7
20260506205238 12 256 0.0 1.6 0.00 0.00 0.00 91 1015.6
20260506203901 12 222 0.0 0.0 0.00 0.00 0.00 92 1015.6
20260506202628 12 221 1.6 3.2 0.00 0.00 0.00 92 1015.7
20260506201418 12 243 1.6 3.2 0.00 0.00 0.00 92 1015.5
20260506200137 12 239 1.6 1.6 0.00 0.00 0.00 92 1015.6
20260506194713 12 242 0.0 6.4 0.00 0.00 0.00 91 1015.6
20260506193318 12 249 0.0 1.6 0.00 0.00 0.00 91 1015.7
20260506191908 12 246 1.6 3.2 0.00 0.00 0.00 92 1015.8
20260506190443 12 247 0.0 1.6 0.00 0.00 0.00 92 1016.1
20260506185028 12 247 1.6 1.6 0.00 0.00 0.00 92 1016.3
20260506183808 12 244 3.2 3.2 0.00 0.00 0.00 91 1016.3
20260506182411 13 241 1.6 3.2 0.00 0.00 0.00 91 1016.3
20260506181143 13 244 4.8 6.4 0.00 0.00 0.00 91 1016.3
20260506175938 13 240 3.2 4.8 0.00 0.00 0.00 91 1016.2
20260506174643 13 238 3.2 6.4 0.00 0.00 0.00 92 1016.1
20260506173238 13 237 3.2 4.8 0.00 0.00 0.00 91 1016.3
20260506171803 13 231 0.0 3.2 0.00 0.00 0.00 90 1016.5
20260506170353 13 241 4.8 9.7 0.00 0.00 0.00 91 1016.6
20260506164915 13 243 3.2 4.8 0.00 0.00 0.00 90 1016.6
20260506163518 13 236 1.6 4.8 0.00 0.00 0.00 91 1016.5
20260506162306 13 283 1.6 3.2 0.00 0.00 0.00 91 1016.6
20260506160948 13 253 1.6 3.2 0.00 0.00 0.00 91 1016.7
20260506155633 13 241 0.0 0.0 0.00 0.00 0.00 90 1016.9
20260506154251 13 243 0.0 1.6 0.00 0.00 0.00 89 1017.1
20260506152803 14 244 1.6 1.6 0.00 0.00 0.00 88 1017.6
20260506151343 14 250 1.6 3.2 0.00 0.00 0.00 87 1017.6
20260506150136 14 226 1.6 3.2 0.00 0.00 0.00 86 1017.6
20260506144841 14 236 3.2 4.8 0.00 0.00 0.00 87 1017.8
20260506143619 14 234 1.6 4.8 0.00 0.00 0.00 86 1018.0
20260506142243 14 224 1.6 1.6 0.00 0.00 0.00 85 1017.9
20260506140818 15 272 1.6 3.2 0.00 0.00 0.00 82 1017.6
20260506135423 15 231 1.6 3.2 0.00 0.00 0.00 82 1017.8
20260506133948 15 279 1.6 3.2 0.00 0.00 0.00 80 1017.6
20260506132448 15 281 1.6 4.8 0.00 0.00 0.00 80 1017.7
20260506131223 16 211 0.0 1.6 0.00 0.00 0.00 79 1017.7
20260506125800 16 262 1.6 4.8 0.00 0.00 0.00 75 1017.7
20260506124445 17 293 1.6 3.2 0.00 0.00 0.00 72 1017.7
20260506123208 17 276 0.0 1.6 0.00 0.00 0.00 71 1017.7
20260506121715 17 258 1.6 3.2 0.00 0.00 0.00 71 1017.6
20260506120234 17 271 1.6 3.2 0.00 0.00 0.00 67 1017.4
20260506114801 17 199 1.6 1.6 0.00 0.00 0.00 67 1017.3
20260506113503 17 161 0.0 0.0 0.00 0.00 0.00 64 1017.1
20260506112103 17 161 0.0 1.6 0.00 0.00 0.00 62 1017.2
20260506110833 18 160 0.0 1.6 0.00 0.00 0.00 59 1016.9
20260506105538 18 161 0.0 1.6 0.00 0.00 0.00 56 1016.9
20260506104118 18 165 0.0 1.6 0.00 0.00 0.00 53 1016.6
20260506102733 19 151 0.0 1.6 0.00 0.00 0.00 51 1016.7
20260506101523 19 168 1.6 4.8 0.00 0.00 0.00 49 1016.5
20260506100117 20 129 1.6 6.4 0.00 0.00 0.00 47 1016.5
20260506094803 20 106 3.2 11.3 0.00 0.00 0.00 45 1016.4
20260506093553 20 95 3.2 11.3 0.00 0.00 0.00 49 1016.5